Location: Krakow
(50.0212°N, 19.9423°E)
Time: 14:39:20
(UTC+02:00)

NOAA 18 - Pass Details

Date: 30 April 2024
Orbit: 837 x 859 km, 98.9° (Epoch: 21 May)

Event Time Altitude Azimuth Distance (km) Brightness Sun altitude
Exits shadow 00:20:04 13° 252° (WSW) 2,286 7.3 -25.0°
Maximum altitude 00:21:56 15° 274° (W) 2,159 7.4 -25.0°
Drops below altitude 10° 00:25:01 10° 308° (NW) 2,499 8.1 -25.1°
Sets 00:28:33 0° 331° (NNW) 3,438 9.4 -25.1°
